| time (UTC) | temp C | wind direction | speed KPH | gust KPH | rain 1hr cm | rain 24hr cm | rain mn cm | humidity % | barometer mb |
| 20260505035003 | 10 | 117 | 1.6 | 4.8 | 0.00 | 0.15 | 0.15 | 80 | 1004.3 |
| 20260505034503 | 10 | 39 | 1.6 | 4.8 | 0.00 | 0.15 | 0.15 | 80 | 1004.2 |
| 20260505033502 | 10 | 14 | 3.2 | 4.8 | 0.00 | 0.15 | 0.15 | 82 | 1004.2 |
| 20260505033002 | 10 | 93 | 1.6 | 4.8 | 0.00 | 0.15 | 0.15 | 83 | 1004.4 |
| 20260505031502 | 10 | 53 | 1.6 | 3.2 | 0.00 | 0.15 | 0.15 | 84 | 1004.1 |
| 20260505031002 | 10 | 66 | 1.6 | 4.8 | 0.00 | 0.15 | 0.15 | 84 | 1004.1 |
| 20260505030502 | 10 | 40 | 1.6 | 4.8 | 0.00 | 0.15 | 0.15 | 83 | 1004.0 |
| 20260505030002 | 10 | 355 | 1.6 | 4.8 | 0.00 | 0.15 | 0.15 | 82 | 1004.1 |
| 20260505025502 | 10 | 63 | 3.2 | 4.8 | 0.00 | 0.15 | 0.15 | 83 | 1004.1 |
| 20260505024503 | 10 | 43 | 1.6 | 3.2 | 0.00 | 0.15 | 0.15 | 82 | 1003.4 |
| 20260505023502 | 10 | 48 | 1.6 | 3.2 | 0.00 | 0.15 | 0.15 | 81 | 1003.4 |
| 20260505023003 | 10 | 71 | 3.2 | 4.8 | 0.00 | 0.15 | 0.15 | 81 | 1003.1 |
| 20260505022502 | 10 | 77 | 1.6 | 4.8 | 0.00 | 0.15 | 0.15 | 80 | 1003.4 |
| 20260505022002 | 10 | 9 | 3.2 | 4.8 | 0.00 | 0.15 | 0.15 | 80 | 1003.0 |
| 20260505021502 | 10 | 23 | 3.2 | 4.8 | 0.00 | 0.15 | 0.15 | 80 | 1003.1 |
| 20260505020502 | 10 | 68 | 1.6 | 3.2 | 0.00 | 0.15 | 0.15 | 80 | 1003.4 |
| 20260505015502 | 10 | 55 | 1.6 | 3.2 | 0.00 | 0.15 | 0.15 | 80 | 1003.5 |
| 20260505014502 | 10 | 83 | 3.2 | 4.8 | 0.03 | 0.15 | 0.15 | 80 | 1003.7 |
| 20260505014002 | 11 | 114 | 1.6 | 4.8 | 0.03 | 0.15 | 0.15 | 81 | 1004.0 |
| 20260505013503 | 11 | 70 | 3.2 | 8.0 | 0.03 | 0.15 | 0.15 | 81 | 1004.0 |
| 20260505013002 | 11 | 15 | 3.2 | 8.0 | 0.05 | 0.15 | 0.15 | 80 | 1003.7 |
| 20260505012502 | 11 | 333 | 3.2 | 8.0 | 0.05 | 0.15 | 0.15 | 80 | 1003.7 |
| 20260505012003 | 11 | 13 | 3.2 | 9.7 | 0.05 | 0.15 | 0.15 | 81 | 1003.7 |
| 20260505011002 | 11 | 335 | 4.8 | 11.3 | 0.05 | 0.15 | 0.15 | 78 | 1003.5 |
| 20260505010503 | 11 | 330 | 4.8 | 8.0 | 0.05 | 0.15 | 0.15 | 77 | 1003.7 |
| 20260505010003 | 12 | 8 | 3.2 | 4.8 | 0.05 | 0.15 | 0.15 | 77 | 1003.8 |
| 20260505005502 | 12 | 12 | 3.2 | 9.7 | 0.05 | 0.15 | 0.15 | 74 | 1004.0 |
| 20260505005002 | 12 | 38 | 3.2 | 9.7 | 0.03 | 0.13 | 0.13 | 73 | 1003.8 |
| 20260505004502 | 12 | 49 | 3.2 | 8.0 | 0.05 | 0.13 | 0.13 | 71 | 1004.1 |
| 20260505004002 | 12 | 62 | 3.2 | 8.0 | 0.08 | 0.13 | 0.13 | 70 | 1004.1 |
| 20260505003502 | 12 | 13 | 3.2 | 4.8 | 0.13 | 0.13 | 0.13 | 69 | 1004.0 |
| 20260505003002 | 12 | 66 | 3.2 | 8.0 | 0.10 | 0.10 | 0.10 | 69 | 1004.0 |
| 20260505002503 | 12 | 67 | 3.2 | 8.0 | 0.10 | 0.10 | 0.10 | 69 | 1004.0 |
| 20260505002002 | 12 | 38 | 3.2 | 4.8 | 0.10 | 0.10 | 0.10 | 69 | 1003.8 |
| 20260505001502 | 13 | 79 | 1.6 | 3.2 | 0.10 | 0.10 | 0.10 | 70 | 1003.7 |
| 20260505000002 | 13 | 48 | 1.6 | 8.0 | 0.10 | 0.10 | 0.10 | 60 | 1004.1 |
| 20260504235503 | 13 | 64 | 3.2 | 8.0 | 0.10 | 0.10 | 0.10 | 56 | 1004.1 |
| 20260504235003 | 13 | 69 | 3.2 | 8.0 | 0.10 | 0.10 | 0.10 | 59 | 1004.1 |
| 20260504234002 | 14 | 89 | 1.6 | 8.0 | 0.05 | 0.05 | 0.05 | 57 | 1004.4 |
| 20260504233502 | 15 | 56 | 1.6 | 22.5 | 0.00 | 0.00 | 0.00 | 54 | 1004.3 |
| 20260504233002 | 15 | 350 | 4.8 | 24.1 | 0.00 | 0.00 | 0.00 | 52 | 1004.4 |
| 20260504232502 | 17 | 338 | 11.3 | 24.1 | 0.00 | 0.00 | 0.00 | 43 | 1004.0 |
| 20260504232003 | 17 | 313 | 4.8 | 9.7 | 0.00 | 0.00 | 0.00 | 36 | 1003.6 |
| 20260504231502 | 17 | 327 | 3.2 | 8.0 | 0.00 | 0.00 | 0.00 | 35 | 1003.2 |
| 20260504231010 | 18 | 340 | 1.6 | 4.8 | 0.00 | 0.00 | 0.00 | 34 | 1003.0 |
| 20260504230502 | 18 | 353 | 3.2 | 8.0 | 0.00 | 0.00 | 0.00 | 34 | 1003.4 |
| 20260504230003 | 18 | 13 | 1.6 | 11.3 | 0.00 | 0.00 | 0.00 | 34 | 1004.1 |
| 20260504225502 | 18 | 345 | 3.2 | 11.3 | 0.00 | 0.00 | 0.00 | 33 | 1003.6 |
| 20260504225002 | 19 | 300 | 3.2 | 11.3 | 0.00 | 0.00 | 0.00 | 32 | 1003.5 |
| 20260504224502 | 19 | 46 | 1.6 | 8.0 | 0.00 | 0.00 | 0.00 | 31 | 1003.2 |
| 20260504224002 | 20 | 3 | 3.2 | 8.0 | 0.00 | 0.00 | 0.00 | 31 | 1003.3 |
| 20260504223002 | 20 | 2 | 1.6 | 9.7 | 0.00 | 0.00 | 0.00 | 30 | 1003.4 |
| 20260504222503 | 20 | 336 | 3.2 | 12.9 | 0.00 | 0.00 | 0.00 | 31 | 1003.5 |
| 20260504222002 | 20 | 47 | 3.2 | 12.9 | 0.00 | 0.00 | 0.00 | 31 | 1003.4 |
| 20260504221502 | 20 | 352 | 3.2 | 9.7 | 0.00 | 0.00 | 0.00 | 31 | 1003.4 |
| 20260504221002 | 20 | 326 | 1.6 | 9.7 | 0.00 | 0.00 | 0.00 | 32 | 1003.6 |
| 20260504220502 | 20 | 343 | 3.2 | 9.7 | 0.00 | 0.00 | 0.00 | 32 | 1003.6 |
| 20260504220002 | 19 | 310 | 3.2 | 8.0 | 0.00 | 0.00 | 0.00 | 32 | 1004.4 |
| 20260504215502 | 18 | 353 | 3.2 | 8.0 | 0.00 | 0.00 | 0.00 | 34 | 1004.5 |
| 20260504215002 | 18 | 342 | 3.2 | 4.8 | 0.00 | 0.00 | 0.00 | 35 | 1004.7 |
| 20260504214503 | 18 | 344 | 3.2 | 4.8 | 0.00 | 0.00 | 0.00 | 35 | 1004.7 |
| 20260504214002 | 18 | 355 | 1.6 | 4.8 | 0.00 | 0.00 | 0.00 | 35 | 1004.7 |
| 20260504213502 | 18 | 35 | 1.6 | 4.8 | 0.00 | 0.00 | 0.00 | 36 | 1004.7 |
| 20260504213002 | 18 | 53 | 0.0 | 3.2 | 0.00 | 0.00 | 0.00 | 35 | 1004.7 |
| 20260504212003 | 18 | 13 | 1.6 | 9.7 | 0.00 | 0.00 | 0.00 | 36 | 1004.7 |
| 20260504211502 | 18 | 34 | 3.2 | 9.7 | 0.00 | 0.00 | 0.00 | 36 | 1004.8 |
| 20260504211002 | 18 | 336 | 3.2 | 12.9 | 0.00 | 0.00 | 0.00 | 36 | 1004.8 |
| 20260504210502 | 19 | 93 | 4.8 | 12.9 | 0.00 | 0.00 | 0.00 | 34 | 1005.1 |
| 20260504210002 | 20 | 347 | 4.8 | 11.3 | 0.00 | 0.00 | 0.00 | 32 | 1005.3 |
| 20260504205502 | 18 | 60 | 3.2 | 12.9 | 0.00 | 0.00 | 0.00 | 31 | 1005.2 |
| 20260504205003 | 18 | 174 | 3.2 | 12.9 | 0.00 | 0.00 | 0.00 | 32 | 1005.3 |
| 20260504204002 | 18 | 6 | 3.2 | 14.5 | 0.00 | 0.00 | 0.00 | 32 | 1004.8 |
| 20260504203502 | 18 | 50 | 3.2 | 9.7 | 0.00 | 0.00 | 0.00 | 32 | 1005.0 |
| 20260504203002 | 18 | 44 | 3.2 | 11.3 | 0.00 | 0.00 | 0.00 | 32 | 1005.0 |
| 20260504202502 | 18 | 345 | 4.8 | 11.3 | 0.00 | 0.00 | 0.00 | 31 | 1005.1 |
| 20260504202002 | 18 | 13 | 4.8 | 11.3 | 0.00 | 0.00 | 0.00 | 32 | 1004.9 |
| 20260504201502 | 18 | 4 | 3.2 | 19.3 | 0.00 | 0.00 | 0.00 | 32 | 1005.1 |
| 20260504201002 | 18 | 267 | 3.2 | 20.9 | 0.00 | 0.00 | 0.00 | 33 | 1005.2 |
| 20260504200002 | 18 | 13 | 8.0 | 20.9 | 0.00 | 0.00 | 0.00 | 32 | 1005.7 |
| 20260504195003 | 19 | 17 | 6.4 | 16.1 | 0.00 | 0.00 | 0.00 | 30 | 1005.8 |
| 20260504194502 | 20 | 76 | 3.2 | 11.3 | 0.00 | 0.00 | 0.00 | 27 | 1005.8 |
| 20260504194002 | 20 | 349 | 4.8 | 11.3 | 0.00 | 0.00 | 0.00 | 25 | 1005.4 |
| 20260504193502 | 20 | 357 | 3.2 | 4.8 | 0.00 | 0.00 | 0.00 | 24 | 1005.2 |
| 20260504193002 | 21 | 4 | 1.6 | 11.3 | 0.00 | 0.00 | 0.00 | 24 | 1005.2 |
| 20260504192502 | 21 | 23 | 1.6 | 16.1 | 0.00 | 0.00 | 0.00 | 24 | 1005.1 |
| 20260504192002 | 21 | 324 | 4.8 | 16.1 | 0.00 | 0.00 | 0.00 | 25 | 1005.1 |
| 20260504191002 | 21 | 337 | 4.8 | 12.9 | 0.00 | 0.00 | 0.00 | 24 | 1004.7 |
| 20260504190502 | 22 | 322 | 6.4 | 12.9 | 0.00 | 0.00 | 0.00 | 23 | 1004.5 |
| 20260504185502 | 21 | 318 | 3.2 | 14.5 | 0.00 | 0.00 | 0.00 | 22 | 1005.3 |
| 20260504185002 | 21 | 350 | 1.6 | 22.5 | 0.00 | 0.00 | 0.00 | 22 | 1005.1 |
| 20260504184502 | 22 | 354 | 8.0 | 22.5 | 0.00 | 0.00 | 0.00 | 22 | 1005.8 |
| 20260504184002 | 21 | 344 | 4.8 | 16.1 | 0.00 | 0.00 | 0.00 | 22 | 1005.4 |
| 20260504183502 | 22 | 326 | 4.8 | 14.5 | 0.00 | 0.00 | 0.00 | 23 | 1005.3 |
| 20260504183002 | 22 | 322 | 6.4 | 11.3 | 0.00 | 0.00 | 0.00 | 23 | 1005.2 |
| 20260504182502 | 22 | 329 | 8.0 | 11.3 | 0.00 | 0.00 | 0.00 | 22 | 1005.4 |
| 20260504182002 | 22 | 322 | 4.8 | 14.5 | 0.00 | 0.00 | 0.00 | 22 | 1005.2 |
| 20260504181502 | 22 | 321 | 8.0 | 19.3 | 0.00 | 0.00 | 0.00 | 22 | 1005.3 |
| 20260504180502 | 21 | 322 | 8.0 | 12.9 | 0.00 | 0.00 | 0.00 | 23 | 1005.4 |
| 20260504180002 | 21 | 312 | 8.0 | 14.5 | 0.00 | 0.00 | 0.00 | 23 | 1006.0 |
| 20260504175502 | 21 | 298 | 9.7 | 19.3 | 0.00 | 0.00 | 0.00 | 23 | 1005.9 |
| 20260504175002 | 21 | 323 | 6.4 | 19.3 | 0.00 | 0.00 | 0.00 | 23 | 1006.1 |
| 20260504174002 | 21 | 309 | 8.0 | 14.5 | 0.00 | 0.00 | 0.00 | 23 | 1006.2 |
| 20260504173502 | 21 | 310 | 8.0 | 16.1 | 0.00 | 0.00 | 0.00 | 22 | 1006.1 |
| 20260504173002 | 21 | 312 | 8.0 | 16.1 | 0.00 | 0.00 | 0.00 | 22 | 1006.0 |
| 20260504172502 | 21 | 307 | 4.8 | 16.1 | 0.00 | 0.00 | 0.00 | 23 | 1006.2 |
| 20260504172002 | 21 | 317 | 6.4 | 14.5 | 0.00 | 0.00 | 0.00 | 22 | 1006.1 |
| 20260504171501 | 21 | 311 | 4.8 | 12.9 | 0.00 | 0.00 | 0.00 | 22 | 1006.4 |
| 20260504171002 | 21 | 317 | 4.8 | 11.3 | 0.00 | 0.00 | 0.00 | 22 | 1006.4 |
| 20260504170502 | 21 | 308 | 3.2 | 14.5 | 0.00 | 0.00 | 0.00 | 22 | 1006.2 |
| 20260504151002 | 15 | 139 | 1.6 | 4.8 | 0.00 | 0.00 | 0.00 | 37 | 1007.4 |
| 20260504150501 | 15 | 140 | 1.6 | 4.8 | 0.00 | 0.00 | 0.00 | 37 | 1007.3 |
| 20260504140501 | 9 | 143 | 3.2 | 8.0 | 0.00 | 0.00 | 0.00 | 62 | 1007.1 |
| 20260504130502 | 6 | 115 | 3.2 | 8.0 | 0.00 | 0.00 | 0.00 | 70 | 1006.4 |
| 20260504110502 | 4 | 54 | 3.2 | 9.7 | 0.00 | 0.00 | 0.00 | 71 | 1004.7 |
| 20260504100502 | 5 | 98 | 3.2 | 8.0 | 0.00 | 0.00 | 0.00 | 67 | 1004.1 |
| 20260504082002 | 8 | 66 | 1.6 | 3.2 | 0.00 | 0.00 | 0.00 | 53 | 1002.8 |
| 20260504081501 | 8 | 60 | 1.6 | 3.2 | 0.00 | 0.00 | 0.00 | 53 | 1003.0 |
| 20260504080502 | 8 | 66 | 3.2 | 3.2 | 0.00 | 0.00 | 0.00 | 51 | 1003.0 |